Location: Newark
(35.4036°N, 80.4356°W)
Time: 20:52:54
(UTC+00:00)

ISS - Pass Details

Date: 31 July 2019
Orbit: 410 x 421 km, 51.6° (Epoch: 25 August)

Event Time Altitude Azimuth Distance (km) Brightness Sun altitude
Rises 02:51:48 0° 323° (NW) 2,369 1.5 -24.7°
Reaches altitude 10° 02:54:17 10° 340° (NNW) 1,501 -0.1 -25.0°
Enters shadow 02:56:09 19° 12° (NNE) 1,061 -1.4 -25.3°
